Regional Weather Roundup
Issued by NWS Grand Forks, ND

Home | Current Version | Previous Version | Text Only | Print | Product List | Glossary Off
Versions: 1 2 3 4 5 6 7 8 9 10 11 12 13 14 15 16 17 18 19 20 21 22 23 24 25 26 27 28 29 30 31 32 33 34 35 36 37 38 39 40 41 42 43 44 45 46 47 48 49 50

954
ASUS43 KFGF 080131
RWRFGF
PRAIRIE TO PINES  WEATHER ROUNDUP
NATIONAL WEATHER SERVICE EASTERN NORTH DAKOTA/GRAND FORKS ND
700 PM CST SUN FEB 07 2016

 **SATELLITE DATA USED TO AUGMENT SKY COVER AT AUTOMATED STATIONS**
 *****  WEATHER ACROSS EASTERN NORTH DAKOTA  *****

CITY           SKY/WX    TMP DP  RH WIND       PRES   REMARKS
GRAND FORKS    LGT SNOW  15   9  76 N32G41    29.99R VSB 3/4 WCI  -6
GRAND FRKS AFB LGT SNOW  16  10  79 N29G37    29.98S WCI  -4
GRAND FRKS NWS   N/A     12 N/A N/A NW15        N/A  WCI  -4
DEVILS LAKE    FLURRIES  19  13  77 N31G45    30.00R WCI   0
FARGO          LGT SNOW  17  12  80 N26G32    29.97R WCI  -2
WAHPETON ARPT  CLOUDY    19  14  79 N21G26    29.94R WCI   3
$$

 ***** WEATHER ACROSS CENTRAL AND WESTERN NORTH DAKOTA  *****

CITY           SKY/WX    TMP DP  RH WIND       PRES   REMARKS
BISMARCK       CLOUDY    36  18  48 N21G30    30.10R
MINOT          CLOUDY    32  17  54 NW36G44   30.12R WCI  16
JAMESTOWN      CLOUDY    23  15  71 NW35G51   29.98R WCI   4
MINOT AFB      CLOUDY    29  19  64 NW33G46   30.10R WCI  13
GARRISON         N/A     32  20  61 NW35G45   30.11R WCI  17
WILLISTON      CLEAR     32  18  56 NW21G37   30.25R WCI  20
DICKINSON      PTCLDY    29  14  53 NW22G35   30.18R WCI  15
HETTINGER      PTCLDY    31  14  49 NW24G31   30.20R WCI  17
$$

 *****  OTHER AIRPORT OBSERVATIONS IN OUR AREA  *****

CITY           SKY/WX    TMP DP  RH WIND       PRES   REMARKS
WALHALLA       FLURRIES  14  10  85 N26G36    30.03R WCI  -6
GRAFTON AIRPOR LGT SNOW  12   9  85 N29       30.03R WCI  -9
VALLEY CITY AR LGT SNOW  19  16  86 N31G41    29.99R WCI   0
CANDO          FLURRIES  19  14  79 N31G40    30.06R WCI   0
CAVALIER APRT  LGT SNOW  14   9  79 N23G33    30.02R VSB 3/4 WCI  -5
GWINNER          N/A     23  19  86 N25G33    29.98R WCI   7
SHEYENNE NWR     N/A     20  14  78 N17       29.95S WCI   5
ROLLA          FLURRIES  18  14  86 N35G46    30.02R WCI  -3
 ***** THE ABOVE OBSERVATIONS ARE NON NWS ARE NOT QUALITY
       CONTROLLED AND MAY MIS-REPORT RAIN FOR SNOW...
$$

  *****  WEATHER ACROSS NORTHERN MINNESOTA  *****

CITY           SKY/WX    TMP DP  RH WIND       PRES   REMARKS
FLAG ISLAND    LGT SNOW   7   1  78 NW28G35   29.83R WCI -16
WARROAD        LGT SNOW   7   1  78 NW21G32   29.87R WCI -13
ROSEAU         LGT SNOW   9   3  78 NW24      29.89R VSB 3/4 WCI -12
HALLOCK        SNOW      10   7  85 N28G39    29.97R VSB 1/2 WCI -11
THF RVR FALLS  NOT AVBL
BAUDETTE       LGT SNOW   8   2  76 NW25G38   29.79R VSB 1   WCI -13
WASKISH        LGT SNOW  10   7  85 NW16G29   29.79R WCI  -7
CROOKSTON      HVY SNOW  12  10  92 N33G40    29.96R VSB 1/4 WCI -10
STEPHEN NDAWN    N/A     10   9  92 N32         N/A  WCI -12
GREENBUSH NDAW   N/A      9   7  92 NW17        N/A  WCI -10
$$
  *****  WEATHER ACROSS CENTRAL AND WEST MINNESOTA  *****

CITY           SKY/WX    TMP DP  RH WIND       PRES   REMARKS
FOSSTON        LGT SNOW   9   5  85 NW22G28   29.88R WCI -11
BEMIDJI        LGT SNOW  10   6  82 NW24G33   29.79R WCI -10
PARK RAPIDS    LGT SNOW  12   5  73 NW21G35   29.77R WCI  -7
ELBOW LAKE     CLOUDY    17  12  82 NW22G38   29.88R FOG     WCI  -1
WADENA         LGT SNOW  10   5  79 NW28G39   29.80R WCI -11
DETROIT LAKES  LGT SNOW  12  10  92 NW31G47   29.87R VSB 3/4 WCI -10
MOORHEAD       MIX PCPN  16  12  86 N28       29.96R WCI  -4
FERGUS FALLS   LGT SNOW  16  12  86 N33G44    29.92R WCI  -5
MORRIS MN      FLURRIES  19  16  86 N30G39    29.87R WCI   0
STAPLES        FLURRIES  12   7  79 NW21G31   29.79R WCI  -6
$$
  *****  WEATHER ELSEWHERE ACROSS MINNESOTA  *****

CITY           SKY/WX    TMP DP  RH WIND       PRES   REMARKS
DULUTH         LGT SNOW  25  21  85 NW21G29   29.56R VSB 3/4 WCI  11
INTRNTL FALLS  MIX PCPN  19  14  81 N17G28    29.69R WCI   4
ELY            LGT SNOW  28  27  93 NW9       29.54R WCI  20
CLOQUET        LGT SNOW  25  21  86 W18G25    29.59R WCI  11
WHEATON        FLURRIES  23  18  80 NW22G43   29.94R WCI   8
BRAINERD       LGT SNOW  16  10  77 NW16G24   29.74R WCI   1
HIBBING        LGT SNOW  19  15  84 NW23G29   29.62R FOG     WCI   2
ALEXANDRIA     FLURRIES  17   8  67 NW32G48   29.81R WCI  -3
SAINT CLOUD    LGT SNOW  19  13  77 NW29G41   29.76R WCI   0
MINNEAPOLIS    LGT SNOW  24  19  81 NW29G40   29.73R WCI   7
$$

  *****  WEATHER ACROSS SOUTH DAKOTA  *****

CITY           SKY/WX    TMP DP  RH WIND       PRES   REMARKS
SIOUX FALLS    LGT SNOW  25  20  81 NW25G33   29.96R WCI   9
BROOKINGS      LGT SNOW  23  18  80 N21G28    29.91R WCI   8
WATERTOWN      LGT SNOW  22  16  78 NW24G33   29.92R WCI   5
HURON          MIX PCPN  30  20  66 N35G53    29.99R WCI  14
SISSETON         N/A     22  15  75 N36G45    29.92R WCI   3
ABERDEEN       CLOUDY    30  17  58 NW33G44   30.00R WCI  14
MITCHELL       FLURRIES  31  26  82 N26G38    30.04R WCI  17
PIERRE         PTCLDY    35  14  42 NW30G45   30.11R WCI  22
MOBRIDGE       CLOUDY    35  17  47 NW25G39   30.06R WCI  23
RAPID CITY     PTCLDY    33   9  36 NW28G37   30.23R WCI  20
$$

  *****  SOME WEATHER IN NEARBY STATES *****

CITY           SKY/WX    TMP DP  RH WIND       PRES   REMARKS
GLASGOW MT     PTCLDY    31  19  61 NW15      30.38R WCI  20
GREAT FALLS MT CLOUDY    39  11  31 CALM      30.43R
CHEYENNE WY    MOCLDY    23  15  71 N15       30.29R WCI  10
SCOTTSBLUFF NE MOCLDY    29  16  58 NW18      30.34R WCI  16
OMAHA NE       CLOUDY    35  28  75 NW28G37   29.98R WCI  22
DES MOINES IA  CLOUDY    36  30  79 NW17      29.86S
DAVENPORT IA   CLEAR     35  28  75 W10       29.80F
CHICAGO IL     MOCLDY    38  28  67 W12       29.74F
EAU CLAIRE WI  CLOUDY    36  28  73 SW12      29.59F
LA CROSSE WI   CLOUDY    37  28  70 W13G23    29.66F
$$

  *****  SOME NATIONAL WEATHER *****

CITY           SKY/WX    TMP DP  RH WIND       PRES   REMARKS
LA GUARDIA NY  CLOUDY    40  30  67 NE8       30.00F
RALEIGH NC     MOCLDY    42  23  46 VRB6      29.86F
ATLANTA GA     PTCLDY    47  21  35 VRB5      29.99S
NEW ORLEANS LA CLEAR     53  32  44 SW12      30.17R
OKLAHOMA CITY  CLEAR     52  24  33 N17       30.19R
ALBUQUERQUE NM PTCLDY    50  18  28 N8        30.33R
SALT LAKE CITY MOCLDY    33  27  78 N7        30.60S
LOS ANGELES CA CLEAR     73  29  19 W8        30.08S
BOISE ID       PTCLDY    45  35  68 W7        30.62R
SEATTLE WA     MOCLDY    50  38  63 N7        30.54S
$$

*** WEATHER ACROSS MANITOBA...SASKATCHEWAN AND ONTARIO ***
                ***ONTARIO***

CITY           SKY/WX    TMP DP  RH WIND       PRES   REMARKS
GERALDTON      LGT SNOW   3  -2  78 NE13G21   29.75S DRFTSNOWWCI -14
THUNDER BAY    LGT SNOW  16  12  86 NE9       29.64R WCI   4
SIOUX LOOKOUT  LGT SNOW  10   5  79 E6        29.72R WCI   1
TORONTO        MOCLDY    39  32  75 E8        29.86F
BIG TROUT LK   CLEAR     -8 -15  71 E6        30.04R WCI -21
PICKLE LAKE    LGT SNOW   1  -6  71 E12G17    29.82R DRFTSNOWWCI -15
DRYDEN         LGT SNOW  12   9  85 NE8       29.71R WCI   1
KENORA         LGT SNOW  12   9  85 N9G20     29.76R VSB 1   WCI   0
$$
                *** MANITOBA***

CITY           SKY/WX    TMP DP  RH WIND       PRES   REMARKS
BRANDON        CLOUDY    18  12  79 NW21G28   30.08R WCI   1
DAUPHIN        FLURRIES  18  10  73 NW10G18   30.12R WCI   6
ISLAND LAKE    FLURRIES   0  -6  78 N6        30.01R WCI -12
PILOT MOUND      N/A     16  12  86 NW23G30     N/A  WCI  -2
THE PAS        CLOUDY    12   9  85 NW6       30.15R WCI   3
THOMPSON       FLURRIES  -2  -8  78 N3        30.08
WINNIPEG       LGT SNOW   9   3  78 N22G30    30.01R VSB 1   WCI -11
LYNN LAKE      FLURRIES   3   0  85 NW9       30.11R WCI -11
CHURCHILL      FLURRIES  -9 -15  77 S6        30.20R WCI -23
GILLAM         LGT SNOW  -6 -13  71 NE5       30.11R WCI -17
$$
                ***SASKATCHEWAN***

CITY           SKY/WX    TMP DP  RH WIND       PRES   REMARKS
ESTEVAN        PTCLDY    27  19  74 NW23G32   30.20R WCI  12
KINDERSLEY     PTCLDY    23  19  86 W13       30.36S WCI  11
LLOYDMINSTER   PTCLDY    27  19  74 W17       30.32R WCI  14
PRINCE ALBERT  PTCLDY    25  18  74 N7        30.23R WCI  17
REGINA         PTCLDY    27  19  74 NW21      30.26R WCI  13
YORKTON        CLEAR     21  16  79 NW20G28   30.13R WCI   6
N. BATTLEFORD  CLEAR     27  18  69 W8        30.34R WCI  18
LA RONGE       PTCLDY    14   7  73 W13       30.23  WCI   0
SASKATOON      PTCLDY    25  18  74 W15       30.31R WCI  12
SWIFT CURRENT  CLEAR     27  18  69 NW15      30.34R WCI  15
$$
NOTE: THESE ARE AUTOMATED STATIONS WITH LIMITED QUALITY CONTROL
      "FAIR" INDICATES FEW OR NO CLOUDS BELOW 12,000 FEET WITH NO
      SIGNIFICANT WEATHER AND/OR OBSTRUCTIONS TO VISIBILITY.
      SKY/WX - SKY CONDITION AND SIGNIFICANT WEATHER.
      TMP - AIR TEMPERATURE.    DP   - DEWPOINT TEMPERATURE.
      RH  - RELATIVE HUMIDITY.  PRES - PRESSURE.
      HX  - HEAT INDEX.         WCI  - WIND CHILL INDEX.
$




USA.gov is the U.S. government's official web portal to all federal, state and local government web resources and services.